Location: Béaulencourt
(50.0796°N, 2.8795°E)
Time: 06:20:53
(UTC+00:00)

Cosmos 2278 Rocket - Pass Details

Date: 20 January 2026
Orbit: 839 x 846 km, 71.0° (Epoch: 18 February)

Event Time Altitude Azimuth Distance (km) Brightness Sun altitude
Exits shadow 03:48:29 29° 117° (ESE) 1,488 3.8 -36.1°
Maximum altitude 03:49:06 30° 105° (ESE) 1,468 3.8 -36.0°
Drops below altitude 10° 03:53:56 10° 46° (NE) 2,469 5.2 -35.3°
Sets 03:56:39 0° 36° (NE) 3,410 5.9 -34.9°
